Regional Weather Roundup
Issued by NWS

Home | Current Version | Previous Version | Graphics & Text | Print | Product List | Glossary On
Versions: 1 2 3 4 5 6 7 8 9 10 11 12 13 14 15 16 17 18 19 20 21 22 23 24 25 26 27 28 29 30 31 32 33 34 35 36 37 38 39 40 41 42 43 44 45 46 47 48 49 50
000
ASUS45 KBOU 231507
RWRCO

WEATHER ROUNDUP FOR COLORADO
NATIONAL WEATHER SERVICE DENVER/BOULDER CO
900 AM MDT FRI JUN 23 2017

NOTE: "FAIR" INDICATES FEW OR NO CLOUDS BELOW 12000 FEET WITH NO
SIGNIFICANT WEATHER AND/OR OBSTRUCTIONS TO VISIBILITY.

COZ001>005-013-030-031-231600-
...NORTHWEST COLORADO...

CITY           SKY/WX    TMP DP  RH WIND       PRES   REMARKS
CRAIG          FAIR      60  35  39 VRB6      30.27R
HAYDEN         FAIR      55  34  44 NW6       30.28S
MEEKER         FAIR      56  44  64 SE3       30.27R
RABBIT EARS PA FAIR      46  32  57 W3        30.46R
STEAMBOAT SPGS FAIR      54  38  54 CALM      30.28R
WALDEN         FAIR      52  39  62 CALM      30.34S
$$

COZ006>008-011-231600-
...WEST CENTRAL VALLEYS...

CITY           SKY/WX    TMP DP  RH WIND       PRES   REMARKS
GRAND JUNCTION FAIR      76  38  25 SW6       30.11S
MONTROSE       FAIR      73  32  22 NE5       30.20R
EAGLE          SUNNY     61  39  44 CALM      30.27F
RIFLE          FAIR      66  37  34 CALM      30.19S
DELTA          FAIR      74  32  21 CALM      30.15S
NUCLA          FAIR      72  28  20 CALM      30.22R
$$

COZ017>023-064>068-231600-
...SOUTHWEST COLORADO...

CITY           SKY/WX    TMP DP  RH WIND       PRES   REMARKS
DURANGO        FAIR      71  34  25 CALM      30.17R
CORTEZ         FAIR      73  37  27 E3        30.16R
PAGOSA SPRINGS FAIR      70  28  21 CALM      30.25R
TELLURIDE      FAIR      62  32  33 CALM      30.40R
WOLF CREEK PAS FAIR      55  27  33 W3        30.61R
$$

COZ009-010-012-014-032>034-037-058>063-231600-
...CENTRAL COLORADO...

CITY           SKY/WX    TMP DP  RH WIND       PRES   REMARKS
ASPEN          FAIR      62  37  39 VRB5      30.29S
BUENA VISTA    FAIR      63  38  39 SE14      30.34R
COPPER MTN     FAIR      54  27  35 CALM      30.55S
BERTHOUD PASS  FAIR      37  27  65 W7        30.56S
COTTONWOOD PAS FAIR      61  37  41 E5        30.45R
GUNNISON       FAIR      60  36  40 CALM      30.30F
KREMMLING      NOT AVBL
LEADVILLE      FAIR      55  30  38 S5        30.41F
MONARCH PASS   FAIR      46  37  71 E21       30.66R
SALIDA         FAIR      63  50  61 E14G22    30.39S
SUNLIGHT       FAIR      52  25  35 CALM      30.52R
WILKERSON PASS FOG       39  37  93 S6        30.54F VSB<1/4
$$

COZ069>075-231600-
...SAN LUIS VALLEY/SANGRE DE CRISTO MOUNTAINS...

CITY           SKY/WX    TMP DP  RH WIND       PRES   REMARKS
ALAMOSA        FAIR      64  45  49 SE7       30.25R
DEL NORTE      FAIR      68  36  30 NE7       30.28R
LA VETA PASS   LGT RAIN  46  45  93 NE14G20   30.58R VSB<1/4
SAGUACHE       FAIR      72  32  23 W8        30.27R
$$

COZ035-036-038>040-231600-
...NORTHERN COLORADO FRONT RANGE...

CITY           SKY/WX    TMP DP  RH WIND       PRES   REMARKS
DENVER INTL AP CLOUDY    50  41  71 N8        30.34F
DMNS CITY PARK   N/A     49  44  82 NE3G12    30.34F
AURORA         LGT RAIN  46  46  99 N5        30.35F
FRONT RANGE AP CLOUDY    50  45  81 N6        30.35S
ERIE MUNI ARPT CLOUDY    51  44  76 SE5       30.33F
BOULDER MUN AP CLOUDY    52  45  76 SE3       30.32F
CENTENNIAL     LGT RAIN  45  44  97 N9        30.36F FOG
BROOMFIELD     CLOUDY    48  45  87 SE5       30.35F
FORT COLLINS   CLOUDY    53  41  63 NE5       30.33F
LONGMONT       CLOUDY    57  44  62 S6        30.34F
$$

COZ041-046-047-076>085-087-088-231600-
...PIKES PEAK/PALMER DIVIDE AND SOUTHERN FOOTHILLS...

CITY           SKY/WX    TMP DP  RH WIND       PRES   REMARKS
COLO. SPRINGS  LGT RAIN  53  48  83 NE12      30.35R
A. F. ACADEMY  CLOUDY    46  44  91 N17G23    30.36R
SCHRIEVER AFB  NOT AVBL
CHEYENNE MTN   NOT AVBL
ELLICOTT       CLOUDY   N/A N/A N/A NE20      30.32R
FALCON           N/A     44  43  95 N16G23    30.36R FOG
FORT CARSON    CLOUDY    54  50  87 N18G25    30.31R
LIMON          CLOUDY    52  41  66 N18       30.30S
MONUMENT HILL  CLOUDY    41  39  93 N13       30.39F FOG
CANON CITY     CLOUDY    61  55  82 NE20      30.27R
WALSENBURG     CLOUDY    55  52  88 NE17      30.31R
TRINIDAD       LGT RAIN  59  56  89 NE15      30.26R FOG
$$

COZ042>045-048>051-090-091-231600-
...NORTHEAST COLORADO...

CITY           SKY/WX    TMP DP  RH WIND       PRES   REMARKS
GREELEY ARPT   CLOUDY    53  41  63 NE5       30.33F
AKRON          CLOUDY    53  41  63 N15       30.28S
BURLINGTON     PTSUNNY   57  47  69 N15G26    30.24R
WRAY           CLOUDY    59  43  55 N17G25    30.24S
YUMA           NOT AVBL
STERLING       CLOUDY    57  43  58 NE7       30.26S
HOLYOKE        NOT AVBL
FORT MORGAN    CLOUDY    53  41  65 N7        30.32R
$$

COZ086-089-092>099-231600-
...SOUTHEAST COLORADO...

CITY           SKY/WX    TMP DP  RH WIND       PRES   REMARKS
PUEBLO         LGT RAIN  58  50  75 E17       30.27R
LA JUNTA       CLOUDY    62  46  55 NE17      30.24R
LAMAR          CLOUDY    61  45  55 NE16      30.21R
SPRINGFIELD      N/A     62  46  55 NE22G29   30.20R
$$



USA.gov is the U.S. government's official web portal to all federal, state and local government web resources and services.